Tracking 25686 objects as of 25-May-2022
HD Live streaming from Space Station
objects crossing your sky now

SL-14 DEB

Track SL-14 DEB now!
10-day predictions


NORAD ID: 35400
Int'l Code: 1991-068AW
Perigee: 1,180.1 km
Apogee: 1,471.3 km
Inclination: 82.9 °
Period: 112.0 minutes
Semi major axis: 7696 km
RCS: 0.0033 m2 (small)
Launch date: September 28, 1991
Source: Commonwealth of Independent States (former USSR) (CIS)
Launch site: PLESETSK MISSILE AND SPACE COMPLEX (PKMTR)

Note: This is SATELLITE DEBRIS
aabbcc
Your satellite tracking list
Your tracking list is empty




NASA's NSSDC Master Catalog

Two Line Element Set (TLE):
1 35400U 91068AW  22144.56704177  .00000053  00000-0  15809-3 0  9990
2 35400  82.9230 245.1251 0189187 326.9632  46.0809 12.85720329733552
Source of the keplerian elements: AFSPC